Tracking 19638 objects as of 20-May-2019
HD Live streaming from Space Station
objects crossing your sky now

ASTRA 2C

Track ASTRA 2C now!
ASTRA 2C is classified as:


NORAD ID: 26853
Int'l Code: 2001-025A
Perigee: 35,780.5 km
Apogee: 35,806.0 km
Inclination: 1.9 °
Period: 1,436.1 minutes
Semi major axis: 42164 km
RCS: 15.8865 m2 (large)
Launch date: June 16, 2001
Source: SOCIETE EUROPEENNE DES SATELLITES (SES)
Launch site: TYURATAM MISSILE AND SPACE COMPLEX (TTMTR)

Direct-to-home; broadcasting, multimedia; 32 transponders for first five years; 28 after, continental Europe
aabbcc
Your satellite tracking list
Your tracking list is empty




NASA's NSSDC Master Catalog

Two Line Element Set (TLE):
1 26853U 01025A   19140.81721848  .00000128  00000-0  00000+0 0  9996
2 26853   1.9314  88.2723 0003022 327.2656 140.5090  1.00273454 65660
Source of the keplerian elements: AFSPC